Location: *
(28.3744°N, 81.5492°W)
Time: 03:25:34
(UTC+00:00)

Cosmos 2082 Rocket - Pass Details

Date: 15 June 2025
Orbit: 831 x 854 km, 71.0° (Epoch: 11 July)

Event Time Altitude Azimuth Distance (km) Brightness Sun altitude
Rises 08:38:55 0° 335° (NNW) 3,416 5.6 -20.6°
Reaches altitude 10° 08:41:24 10° 331° (NNW) 2,480 4.8 -20.2°
Maximum altitude 08:46:57 56° 254° (WSW) 1,009 2.3 -19.3°
Enters shadow 08:50:46 20° 183° (S) 1,855 3.6 -18.7°
